CAPE
1679 1660 1796 1890 2187 2196 2303 2434 2342 2444 2477 2532 2452 2370 2286 2409 2220 2073 1830 1675 1708 1716 1624 1696 1938 1952 1791 1696 1739 1530 1370 1536 1568 1577 1552 1639 1496 1421 1362 1300 1261 1072
2069 1855 1718 1908 2068 2367 2458 2781 2858 2859 2654 2706 2685 2494 2402 2402 2344 2170 1850 1918 1918 1815 1837 1871 1883 1904 2032 1928 1967 1910 1549 1544 1639 1496 1522 1607 1493 1382 1519 1447 1420 1348
2148 1938 1888 1824 1880 1985 2266 2482 2934 2812 2398 2574 2609 2459 2414 2461 2570 2396 2311 2116 1994 1990 1878 1944 2126 2111 2030 2085 1699 2174 1868 1645 1663 1574 1637 1661 1548 1340 1436 1480 1384 1385
1978 2135 2020 1930 2037 2042 2159 2466 2706 2387 2554 2568 2552 2420 2435 2449 2293 2371 2082 2242 2309 2111 2130 1901 1984 2204 2260 2070 1947 2198 1810 1832 1731 1700 1572 1549 1532 1375 1340 1291 1311 1359
1879 2002 2066 2033 1999 2326 2310 2414 2342 2350 2496 2692 2582 2443 2288 2643 2131 1632 1548 1564 1430 2044 2027 2308 1448 1437 1586 1981 2103 2304 2275 2024 1834 1767 1697 1549 1578 1558 1335 1242 1323 1273
2078 2080 2012 1927 2077 1936 1458 1510 1739 2494 2204 2269 2760 2637 2798 2520 2132 1733 1386 1361 1186 1374 1459 1460 1308 959 1130 1431 2155 2280 1877 1627 1573 1834 1451 1504 1420 1430 1378 1281 1294 1266
2270 2242 1976 2017 2268 1872 1441 1448 1324 1497 2300 2366 2313 2879 2719 2164 1788 1597 1291 1133 1351 1290 1294 1194 1071 1001 1130 1282 1145 1435 1971 1543 1769 1779 1536 1326 1256 1246 1140 1189 1081 1080
2417 2365 2290 2262 2217 2214 2530 2327 2171 2267 2334 2339 2456 2234 2152 2016 1880 1458 1593 1263 1263 1349 1334 1025 915 1062 983 1092 1033 1368 2067 1842 1880 1739 1564 1079 883 982 1108 908 930 796
2735 2670 2834 2703 2640 2630 2398 2463 2592 2793 2564 2282 2248 2076 1897 2146 2095 1777 1472 1379 1310 1298 1280 1039 930 1016 1070 1073 1194 1242 1677 1764 1622 1609 1328 1078 1040 808 628 697 773 886
2758 2710 2777 2722 2015 2250 2343 2220 2424 2442 2142 2426 2586 2642 2071 1858 1926 1768 1522 1413 1491 1447 1309 1016 1016 1129 1084 1010 979 1177 1241 1393 1761 1698 1355 1179 959 799 610 844 908 983
2654 2704 2712 2675 2250 2177 2113 1947 2128 2180 1938 2048 2373 2466 2402 2151 1678 1674 1688 1398 1328 1331 1476 1418 1343 1111 1142 963 881 1079 1118 1232 1489 1475 1302 1091 882 804 716 904 1052 1166
2386 2550 2703 2798 2322 2288 2381 1970 1903 1809 1884 1748 1685 1751 2063 2464 1892 1602 1428 1403 1347 1472 1485 1470 1466 1161 1254 1160 925 1018 1129 1338 1688 1402 1547 1056 1056 980 800 834 1031 1141
2158 2256 2577 2613 2654 2520 2485 2554 1894 1774 1681 1829 1921 1871 2055 1864 1622 1644 1610 1431 1348 1241 1248 1360 1436 1241 1054 1028 939 1018 1196 1104 1157 1411 1358 1125 1224 963 994 784 862 1075
1819 2030 2149 2306 2246 2372 2481 2466 2105 1820 1737 1660 1869 1992 2003 1905 1664 1560 1396 1355 1484 1290 1285 1424 1538 1276 1178 1175 1075 994 1124 967 1131 1966 1375 1225 1190 1031 1072 1149 954 993
1765 1978 1924 2040 2063 2129 2208 2308 2338 1954 1940 1867 1756 1818 1969 1770 1622 1369 1441 1635 1665 1583 1501 1650 1458 1160 1246 1172 1215 1190 1008 1015 1036 1259 1803 1688 1535 1566 1434 1373 1357 1271
1603 1826 1951 1972 1870 1957 2067 2300 2300 2184 1964 2001 1811 1786 1926 1775 1804 1455 1553 1658 1921 1804 1706 1777 1471 1163 1230 1169 1258 1184 1064 1031 1100 1290 1860 1648 1630 1630 1540 1553 1440 1418
1629 1670 1812 1975 2098 2146 2234 2152 2164 2196 2066 1873 1907 1921 1764 1767 1812 1824 1684 1573 2083 2039 1879 1999 2064 1475 1271 1165 1096 1226 1298 1205 1068 1283 1404 1736 1730 1730 1646 1578 1578 1477
1538 1750 1699 1703 1941 1960 2056 2060 1969 2003 1941 1886 1630 1649 1696 1859 1982 1971 1793 1739 2130 2262 2142 2099 2170 1623 1521 1477 1414 1386 1300 1208 1328 1246 1515 1616 1852 1760 1716 1662 1614 1636
1525 1872 1824 1759 1755 1886 1951 1948 1792 1875 1780 1717 1689 1667 1683 1771 1970 2037 2042 2173 2034 2347 2228 2025 2148 1778 1701 1670 1630 1506 1417 1430 1802 1550 1714 1892 1856 1830 1759 1716 1614 1587
1572 1862 1973 1912 1668 1761 1840 1771 1696 1401 1469 1553 1618 1787 1805 1808 1888 1967 2060 2016 2043 2079 2208 2187 2314 1977 1729 1620 1543 1460 1375 1318 1880 1784 1986 1912 1923 1853 1990 1840 1656 1616
1790 1774 1925 1904 1873 1760 1646 1649 1554 1547 1572 1721 1768 1837 1869 1833 1857 2072 2166 2017 1818 1887 1917 1945 2059 1919 1662 1498 1402 1337 1304 1353 1712 1738 1788 1938 1922 1962 1945 1828 1736 1590
1256 1776 1457 1954 1386 1349 1758 1787 1801 1826 1733 1815 1637 1912 1987 1954 1913 1955 1984 1979 2310 2408 1876 2134 2044 1730 1654 1518 1451 1325 1293 1295 1364 1487 1599 1786 2005 2000 1925 1887 1816 1730
1256 1346 1088 1252 1278 1324 1734 1448 1623 1701 1780 1683 1936 1822 1963 1879 2135 2080 2025 2056 2047 2208 2104 1890 2023 1494 1504 1481 1398 1292 1234 1230 1217 1132 1138 1521 1768 2012 1996 2038 1918 1944
1162 1192 1134 1133 1048 902 1079 1066 1313 1843 1880 1704 1768 1752 1665 1787 1797 1976 1988 2072 1998 2021 1562 1805 1894 1906 1392 1368 1309 1224 1182 1210 1150 930 1055 1251 1509 1775 1835 1861 1803 1694
895 779 825 865 888 786 868 1117 867 1049 1425 1832 2106 1917 1929 1762 1662 1660 1745 1703 1718 1854 1511 1694 1830 1688 1366 1314 1264 1208 1184 1162 1011 730 942 1181 1356 1587 1704 1472 1686 1510
677 619 741 801 747 647 401 582 351 420 274 931 1373 1814 1799 1953 1568 1418 1575 1720 1782 1723 1876 1717 1868 1999 1366 1267 1170 1133 1156 1115 872 705 870 1019 1322 1383 1593 1577 1554 1761
Wind_Speed
45 51 51 46 48 57 59 57 51 49 48 47 46 44 39 39 36 32 29 28 26 26 26 28 28 26 25 25 25 23 19 15 12 8 4 2 2 4 5 7 7 7
38 43 46 45 50 58 58 55 53 53 50 50 51 47 43 42 39 36 33 30 29 29 28 29 28 26 24 25 26 25 23 21 15 14 9 4 3 4 4 6 6 7
37 33 38 40 45 52 54 53 52 56 54 53 52 49 47 45 42 39 37 34 32 31 30 30 29 28 25 26 26 27 26 23 20 16 13 8 6 6 6 5 6 7
43 33 26 29 40 48 52 51 52 54 56 55 52 49 47 46 44 45 44 42 39 38 37 34 34 34 30 26 25 28 26 25 24 20 16 14 11 9 8 8 8 9
46 40 28 23 30 42 47 49 48 51 53 54 51 50 48 48 61 62 58 56 53 47 43 42 50 41 37 33 26 26 27 28 25 22 19 16 15 13 12 10 9 10
49 50 41 27 24 33 38 38 43 48 51 50 49 48 50 53 53 51 48 47 47 48 48 54 48 44 38 32 28 27 25 26 27 24 20 18 17 16 16 13 11 11
47 50 48 40 29 27 26 27 34 40 46 53 52 49 54 55 54 54 53 51 51 49 51 50 43 38 37 33 29 21 20 21 24 26 23 22 20 17 16 14 13 13
44 46 48 45 34 27 26 26 32 37 43 47 51 52 55 57 54 54 52 51 52 51 48 42 40 37 36 34 31 25 19 20 21 24 25 25 22 20 19 18 16 14
42 45 50 50 42 38 30 27 33 39 41 44 47 52 55 57 56 55 52 53 52 50 47 44 41 37 34 29 25 24 20 16 16 19 25 28 25 22 20 20 18 17
39 40 47 55 48 41 34 30 30 36 41 42 44 50 55 57 55 51 50 52 53 49 45 43 41 39 36 31 28 27 24 18 16 19 25 29 28 25 23 22 20 20
38 41 46 51 43 36 34 32 30 32 41 39 43 49 52 54 51 48 50 52 52 47 43 39 40 41 37 34 36 37 29 24 20 21 26 30 30 28 25 23 22 22
38 41 45 48 44 38 33 35 34 35 42 41 43 46 50 52 48 46 46 46 49 48 45 42 41 43 42 39 37 34 30 23 22 22 27 29 30 28 26 24 23 22
38 40 43 47 47 41 39 39 37 39 42 41 45 50 52 51 46 44 44 43 46 51 50 47 46 46 45 42 38 34 30 24 19 19 24 28 29 29 27 26 24 23
40 39 40 43 45 44 44 44 39 42 43 40 45 51 53 49 46 43 42 42 45 50 53 54 53 51 46 42 42 39 37 33 23 20 22 26 29 29 29 26 25 24
43 42 40 41 42 42 44 45 42 42 44 43 44 49 53 49 47 44 42 43 46 51 55 56 57 56 51 46 46 43 37 28 23 17 20 25 27 28 29 29 27 26
43 43 42 42 42 43 45 45 46 43 44 44 42 45 47 47 48 47 45 45 47 51 55 56 56 57 51 43 42 41 33 28 27 21 20 23 26 27 28 28 27 24
43 44 43 42 43 45 46 46 47 48 47 45 42 40 42 45 46 46 47 46 45 50 55 55 54 55 49 43 35 31 30 28 26 29 27 27 27 28 28 26 25 24
42 43 44 43 43 42 44 48 50 50 48 45 42 38 39 42 43 46 47 46 44 47 54 56 52 51 51 43 39 36 35 33 34 33 31 31 31 31 31 30 28 27
40 44 44 44 43 42 44 49 51 51 48 48 47 44 42 40 40 43 47 47 44 46 55 56 53 51 52 52 50 49 46 41 37 33 33 32 33 32 33 34 33 31
37 42 44 45 44 43 45 46 48 48 49 50 52 51 48 46 42 41 45 45 45 46 52 55 51 56 52 52 50 49 50 48 43 38 37 36 34 34 36 37 35 34
37 41 44 45 44 45 46 47 48 51 51 53 55 54 52 50 46 44 43 43 44 45 46 49 51 59 51 50 49 48 48 50 45 41 41 40 38 37 37 38 38 37
38 45 46 47 46 46 46 45 47 51 53 55 56 56 56 54 51 49 45 42 41 42 40 43 47 54 48 47 47 45 48 52 49 42 42 41 39 38 39 41 42 41
40 46 50 52 56 55 51 48 48 51 53 57 58 59 59 57 54 53 52 48 44 42 36 37 41 49 45 44 43 44 52 54 51 44 42 42 41 41 42 44 45 44
40 40 46 52 52 48 49 56 59 57 58 60 60 62 62 60 57 57 56 54 50 44 39 37 38 45 44 42 39 41 49 51 50 45 41 41 42 44 46 46 45 44
42 43 44 46 49 49 49 48 49 55 61 63 65 66 66 64 63 62 61 58 54 51 49 46 41 43 45 41 37 40 46 48 50 49 45 43 44 46 47 46 43 45
42 45 45 43 43 44 46 49 46 42 47 59 61 64 69 69 67 65 63 62 60 57 58 54 48 49 53 43 41 40 41 43 44 47 46 45 46 47 49 47 44 45
Wind_Direction
243 244 247 240 222 216 218 220 222 227 228 229 231 230 223 217 214 212 215 216 217 220 226 233 238 238 233 230 226 222 218 213 210 209 209 241 298 335 338 355 357 346
236 243 238 227 214 212 213 218 223 228 229 230 230 229 224 219 215 211 212 217 218 219 222 226 231 233 233 230 226 220 216 215 212 213 211 224 240 284 306 336 338 335
224 229 221 211 208 210 212 216 219 224 227 228 230 231 227 221 216 213 212 214 216 220 222 223 226 228 229 229 226 220 216 217 214 213 216 220 230 246 264 288 300 321
220 220 217 206 206 209 212 214 216 221 226 227 229 231 226 219 215 214 210 210 211 214 218 221 223 224 222 226 225 218 215 217 217 217 217 218 225 240 248 261 279 289
224 222 224 216 203 207 213 215 217 221 225 228 230 228 223 219 222 218 211 207 205 209 213 219 223 222 217 218 217 217 214 215 217 219 221 221 228 239 245 252 267 283
232 227 227 225 212 209 215 216 216 219 224 228 230 224 220 224 228 226 224 224 226 221 213 219 223 221 220 215 213 213 212 214 216 220 222 223 227 237 243 253 263 275
240 234 228 227 227 222 221 223 219 219 222 226 226 223 221 225 229 225 222 223 230 233 231 229 228 227 227 218 216 214 213 210 214 221 221 224 227 237 244 252 260 265
243 239 230 227 227 226 224 228 228 223 226 227 226 225 225 227 231 229 224 222 227 233 238 238 238 235 234 225 212 208 212 210 213 221 223 223 228 233 244 246 253 260
241 241 234 229 231 234 236 237 232 226 229 231 227 227 225 226 229 232 228 222 225 232 235 235 235 237 243 240 225 220 218 218 221 226 226 225 227 231 239 246 250 255
235 236 232 231 229 228 237 243 237 230 229 230 229 228 228 227 229 232 232 227 227 232 235 235 232 232 235 236 238 235 225 221 234 235 227 222 224 230 236 243 251 257
231 234 230 231 233 230 233 239 239 235 230 230 228 226 226 229 229 229 231 231 230 235 238 238 236 234 232 231 238 239 228 221 227 228 221 218 221 228 236 242 249 255
228 231 231 231 231 225 230 236 235 237 236 231 227 225 223 226 231 231 233 233 233 238 241 241 240 236 231 229 234 235 225 222 224 218 215 217 223 231 239 244 246 255
227 229 231 233 230 226 225 229 233 237 242 236 227 225 227 229 230 231 233 234 235 239 243 244 244 243 237 231 231 231 225 220 225 222 220 219 223 233 240 247 252 256
226 228 229 232 233 225 221 226 228 233 240 240 233 228 228 233 235 230 231 235 236 240 245 246 246 246 244 239 235 232 224 217 213 225 228 227 229 235 241 248 255 259
225 226 226 230 232 226 222 226 227 229 235 237 236 232 231 234 235 232 233 237 239 241 244 245 244 243 244 243 241 238 234 222 220 221 235 238 241 243 246 254 257 258
225 224 224 227 229 225 221 224 228 230 232 237 239 234 232 233 234 235 236 236 238 242 243 243 243 241 244 249 243 238 235 226 222 226 237 241 244 247 250 254 255 257
224 224 223 225 228 226 222 223 227 229 230 232 233 233 233 233 234 237 237 235 235 240 243 243 244 244 251 247 243 243 234 221 222 227 230 236 240 243 246 249 251 257
223 224 223 222 224 227 225 225 227 230 230 231 234 235 234 234 234 235 237 237 235 238 241 242 244 249 264 262 255 256 256 241 233 226 227 234 238 241 243 246 248 250
222 223 224 222 224 226 227 227 228 230 230 231 234 237 235 234 235 237 238 237 234 237 242 243 243 252 261 263 260 259 262 257 246 244 243 246 247 249 251 252 250 248
222 222 222 222 223 226 229 229 229 230 230 231 233 237 237 236 236 239 239 238 234 235 239 242 244 252 259 258 258 256 256 254 245 243 242 245 247 251 254 256 257 253
225 222 221 222 222 227 230 231 231 231 232 233 235 237 239 238 239 240 242 239 233 232 239 242 245 253 252 251 255 258 257 252 245 239 239 240 243 248 252 257 258 256
216 218 218 219 224 225 228 231 232 234 234 235 236 238 240 240 239 239 243 242 236 237 242 246 244 251 247 249 255 256 256 246 243 243 239 240 243 246 250 253 256 257
215 213 215 216 214 215 223 230 233 234 234 236 237 239 241 241 240 240 242 241 238 237 244 244 238 245 249 250 254 257 249 241 242 243 241 241 244 245 248 252 256 259
215 212 212 214 220 222 216 217 221 230 233 234 235 239 242 243 241 241 242 242 240 239 241 240 237 246 254 255 257 257 250 246 245 246 246 245 246 247 248 250 257 261
214 210 210 214 215 217 223 227 224 222 224 231 234 236 239 242 244 241 241 241 242 241 242 242 241 245 253 255 259 258 253 247 247 247 247 249 249 249 250 253 257 259
212 208 208 210 211 214 222 224 222 224 222 224 227 235 237 242 244 242 243 243 243 243 241 244 245 243 249 258 262 263 266 255 252 249 250 252 253 252 252 254 258 259